Theta_e
354 355 354 354 354 353 353 352 353 353 353 353 353 354 353 352 352 353 352 351 352 354 354 354 354 354 354 354 353 353 354 354 353 354 353 352 352 353 356 357 357 358 359 358 357 358 357 356 356 357 357 358 361 362 358 357 359 356 353 352 350 345 343 340 334 337 342 340 340 342 342 342 343 343 343 342 340 341 346 349 349 349 349 349 348
353 354 354 356 353 353 354 353 353 353 352 352 352 352 353 353 352 353 353 352 351 353 353 353 354 353 353 353 352 352 352 353 354 354 353 352 353 354 356 357 358 359 359 358 358 358 358 357 357 358 359 360 361 360 358 357 357 356 352 351 349 344 343 341 335 337 342 340 340 342 342 342 341 342 342 342 342 342 346 348 347 347 348 349 348
354 353 353 355 355 354 354 354 353 353 353 353 353 352 353 353 352 353 353 353 352 352 353 354 353 353 353 353 352 352 353 353 353 353 353 353 354 355 357 358 359 359 358 358 358 360 360 359 359 360 361 361 360 360 358 357 357 356 352 350 348 343 342 341 336 338 342 341 343 344 343 342 341 342 342 341 343 343 345 346 344 344 345 345 345
354 353 353 353 354 355 354 355 354 353 354 353 354 353 353 354 353 354 355 353 353 352 353 353 353 354 354 354 354 353 353 354 354 354 353 353 353 355 358 359 359 359 359 358 359 360 361 360 359 360 361 360 360 360 358 356 356 355 352 349 347 343 342 340 336 341 345 344 344 345 341 342 343 343 343 341 342 343 343 342 342 343 343 342 342
351 352 354 354 354 356 356 356 355 354 354 355 354 354 353 354 354 355 356 355 355 354 354 354 355 355 355 355 355 355 355 354 356 355 355 354 352 354 358 359 359 358 358 359 359 360 361 361 361 361 361 360 361 361 358 356 355 354 352 349 346 344 344 343 339 341 345 346 346 346 343 344 344 341 342 341 341 342 342 341 340 342 342 341 341
353 354 354 354 355 356 358 358 356 355 355 355 355 355 355 355 355 356 357 356 356 356 355 356 356 356 356 356 356 356 356 356 357 356 355 355 352 351 356 358 358 358 358 359 359 359 361 362 362 361 361 361 362 361 359 357 355 354 351 348 347 345 345 345 343 340 343 346 347 347 346 345 344 341 342 343 343 342 341 340 340 340 341 341 339
353 355 355 355 355 357 358 359 357 356 356 356 356 356 356 356 356 357 357 357 357 357 357 357 357 358 356 356 356 356 357 357 358 356 355 355 352 350 353 356 359 359 358 359 360 360 360 362 363 362 361 362 362 361 360 358 355 354 351 348 348 348 344 343 344 342 342 345 346 346 345 344 344 344 344 345 344 344 342 340 340 339 340 340 339
353 355 357 356 357 358 360 360 359 358 357 358 357 357 357 358 357 358 358 358 358 358 358 358 358 358 357 357 357 357 357 359 359 359 355 355 353 350 352 354 358 360 358 358 360 361 360 362 363 363 362 362 361 361 360 358 356 354 352 348 348 351 347 342 344 345 341 341 342 342 343 343 344 344 345 345 345 345 343 341 341 339 339 339 337
354 355 358 357 357 359 361 361 360 358 359 359 359 358 359 359 359 359 359 359 359 359 359 359 358 359 359 358 358 358 359 358 360 360 357 354 353 352 352 353 357 361 360 359 360 360 361 361 363 363 362 362 361 361 361 359 357 356 354 351 350 351 349 342 343 346 342 340 340 341 343 343 342 343 343 345 346 344 343 341 340 339 338 337 336
351 355 358 357 358 360 361 363 361 359 359 359 359 360 359 360 361 360 360 360 360 360 359 359 359 359 359 359 359 359 359 358 358 358 358 355 354 355 354 355 357 361 362 359 360 360 361 362 362 363 363 363 361 360 360 359 358 357 355 354 350 351 350 345 343 346 346 344 343 342 343 343 342 342 342 343 344 345 343 342 339 339 338 338 336
351 355 358 359 360 361 360 362 362 359 360 360 360 361 360 362 362 361 361 361 361 361 360 360 360 360 360 360 360 361 360 359 358 358 359 357 356 358 358 358 359 361 362 361 360 360 361 361 362 362 362 363 361 361 360 359 358 358 357 356 352 350 351 347 342 345 348 347 346 345 344 342 342 342 341 341 342 343 343 341 340 339 339 339 338
353 356 359 360 360 361 361 363 363 360 360 362 362 362 363 363 364 364 363 362 362 362 361 361 360 360 360 360 361 362 361 359 358 359 360 360 359 360 360 360 360 361 361 359 360 359 361 362 361 361 361 361 361 362 361 359 358 357 357 356 354 350 350 349 344 344 347 348 348 345 344 343 343 343 342 342 343 343 342 341 340 340 340 339 339
355 360 361 360 361 360 361 363 364 362 361 363 362 363 364 365 366 365 365 364 363 362 362 361 362 361 361 361 361 363 362 360 359 359 361 362 363 362 361 361 362 361 361 359 358 359 361 363 363 361 361 361 361 361 361 361 358 357 357 356 355 352 350 350 347 344 347 348 348 346 343 343 344 342 341 342 342 342 342 342 340 340 340 340 339
357 360 360 362 362 361 362 364 365 364 362 363 363 363 365 366 367 367 367 366 364 363 363 362 362 362 361 363 363 363 362 361 360 359 361 363 363 364 361 360 361 362 362 360 358 359 360 362 363 363 362 362 362 361 361 362 360 358 358 356 356 354 350 350 349 346 345 348 348 347 345 343 344 342 339 340 341 341 342 342 342 342 341 339 340
355 359 360 361 363 362 363 364 365 364 363 362 364 363 365 367 368 369 368 368 366 364 365 363 363 363 362 363 364 364 363 362 361 359 359 362 363 363 361 359 359 361 362 361 359 359 359 362 364 364 364 364 364 363 362 363 362 360 358 357 356 355 352 350 350 348 346 347 348 348 347 346 344 344 341 337 338 339 340 340 342 344 343 340 339
350 356 360 361 364 364 364 364 365 367 364 363 364 363 365 367 369 370 369 369 368 366 366 364 364 363 363 364 364 365 363 361 360 360 360 362 362 363 362 360 357 357 359 361 361 360 359 360 362 364 364 364 364 364 363 362 362 361 359 359 358 355 353 351 350 350 347 347 348 348 348 347 345 344 343 339 337 338 339 339 340 342 345 344 340
347 352 359 362 363 365 364 365 365 367 365 363 365 364 365 367 369 370 370 370 369 368 366 366 365 365 365 365 365 365 363 361 360 360 360 360 361 362 361 360 358 355 357 360 361 362 361 360 361 363 363 364 363 364 363 362 363 362 361 360 359 356 354 352 351 351 349 347 347 347 347 348 347 345 344 342 340 340 339 339 339 340 343 344 343
346 352 360 361 361 364 366 365 365 367 367 365 365 365 366 367 369 370 370 370 370 369 368 367 368 366 366 366 365 364 364 361 359 360 361 361 361 362 360 359 359 356 354 356 360 363 363 362 362 362 363 363 363 362 363 363 362 362 360 360 360 357 355 353 351 351 351 348 346 347 348 346 346 347 345 344 342 343 341 340 341 340 340 341 343
346 352 360 361 361 363 366 366 365 367 367 366 366 365 366 367 369 369 370 371 369 368 368 368 367 367 365 366 366 364 364 362 360 360 362 361 361 361 361 360 359 358 356 355 358 361 364 363 363 364 363 363 363 362 363 364 363 362 361 359 361 359 356 354 352 352 351 349 346 347 348 348 346 346 346 344 343 344 343 341 341 341 340 341 343
347 352 358 360 360 361 365 365 365 366 367 367 366 365 366 367 368 369 369 370 369 369 368 368 367 366 366 366 366 365 364 364 362 362 361 362 361 360 362 361 360 360 359 358 358 361 363 363 363 362 360 360 362 362 362 364 364 363 361 360 360 361 359 355 353 353 352 351 348 346 348 349 347 346 346 346 344 345 344 342 341 341 341 342 342
348 351 356 358 360 360 363 365 364 365 367 367 365 366 365 367 367 368 369 369 369 368 368 369 368 366 366 367 367 367 366 365 364 363 362 362 362 361 361 361 361 361 360 360 360 361 362 363 363 361 360 358 361 362 361 363 364 363 362 360 360 361 360 357 355 354 353 353 350 347 347 349 348 346 346 346 345 345 345 342 341 342 342 342 343
349 351 352 356 360 359 361 364 364 363 367 366 366 365 365 366 366 366 367 367 367 368 368 368 368 366 366 367 367 368 367 366 365 364 363 363 363 364 363 362 362 362 361 361 362 362 362 362 363 362 361 359 360 363 362 362 364 365 362 361 361 361 361 359 357 356 355 354 353 350 348 348 349 347 347 346 344 345 345 343 342 343 343 343 343
348 346 347 352 357 359 362 364 363 363 364 365 366 365 364 364 364 364 365 366 365 365 368 369 368 366 366 367 368 368 368 368 366 365 364 363 363 365 365 365 363 363 363 363 362 363 363 363 363 362 364 362 361 362 363 362 364 365 363 361 361 361 361 359 358 357 356 355 354 352 350 349 348 348 347 346 345 344 345 343 342 342 343 344 343
348 347 348 349 352 360 364 365 366 365 364 365 365 365 364 363 363 362 362 364 363 364 366 369 368 367 367 367 368 368 367 368 366 364 365 363 361 364 366 366 365 363 363 364 363 363 364 365 364 363 364 364 363 363 364 363 364 366 365 362 361 362 363 361 359 358 357 357 355 354 353 351 349 348 348 346 345 345 345 344 343 343 344 344 344
349 351 351 350 354 366 369 371 372 367 363 364 365 364 364 362 363 362 361 362 361 360 365 368 368 367 367 368 367 367 367 367 365 364 362 361 360 361 364 366 366 363 361 363 365 364 365 367 366 364 364 366 365 365 366 365 364 365 367 364 362 362 363 362 360 358 358 358 357 355 355 353 350 349 348 347 346 345 345 345 344 344 345 345 344
357 355 353 356 364 371 372 373 372 365 362 364 364 363 362 363 362 362 361 362 361 360 363 367 367 366 366 368 368 367 366 366 364 363 361 361 359 360 361 364 366 364 361 361 365 366 366 367 367 366 365 366 367 367 367 366 364 364 366 365 364 362 363 363 362 360 359 359 359 357 356 355 352 350 349 348 347 347 346 346 345 345 346 346 345
356 355 356 361 366 368 370 371 367 363 362 363 362 362 362 362 362 361 361 362 360 360 362 366 367 365 366 368 369 368 366 365 364 362 360 360 359 358 358 361 364 366 363 360 362 366 367 367 368 368 366 367 368 367 367 367 366 364 366 366 365 363 362 364 363 361 361 360 360 359 357 356 355 353 351 350 349 347 346 346 346 346 346 347 347
356 357 358 359 361 363 368 368 364 362 362 361 361 361 362 361 362 361 361 360 361 361 363 366 368 366 367 369 370 370 367 365 364 364 361 360 359 358 358 360 362 365 365 361 360 363 367 367 368 369 368 367 368 368 368 369 368 366 365 366 365 362 362 363 363 363 362 361 361 361 358 357 357 355 353 351 350 349 347 347 347 346 347 346 347
357 361 363 363 362 364 366 366 364 362 361 362 360 361 361 362 362 362 361 359 361 362 364 366 368 367 368 369 370 370 369 366 364 366 365 362 360 360 359 359 362 363 365 363 360 359 365 367 368 369 368 368 368 368 368 369 369 368 366 366 366 364 361 362 363 363 361 360 360 360 359 358 357 357 354 352 351 350 349 349 348 348 348 347 346
351 356 361 365 364 365 366 367 367 365 364 363 362 361 361 361 362 361 361 359 361 363 365 366 367 368 369 370 372 372 371 370 366 367 369 365 361 361 361 360 362 362 364 364 363 360 361 365 368 369 369 368 368 369 367 366 367 367 368 366 366 365 363 361 363 363 362 360 358 358 359 359 358 357 355 353 352 351 349 349 349 349 348 348 348
342 350 356 361 363 366 367 369 369 368 365 363 361 361 360 359 360 360 360 359 359 363 365 365 367 370 370 372 373 373 372 371 370 368 370 368 364 363 362 362 362 363 364 364 365 363 361 362 365 369 369 369 369 368 366 365 364 365 366 366 366 366 365 363 362 362 361 359 358 357 357 358 358 357 356 355 353 351 349 348 348 349 349 348 348
338 343 350 355 357 361 367 369 366 367 366 363 362 362 360 360 359 359 359 359 359 362 365 365 367 369 371 373 373 374 373 372 371 370 370 370 368 366 364 364 364 365 365 365 365 366 364 362 363 367 369 370 369 367 365 364 363 362 362 364 366 366 366 364 363 362 362 360 358 357 357 358 357 358 357 355 354 352 350 348 347 348 348 347 347
338 343 348 351 350 352 359 365 366 365 365 362 361 361 361 360 358 358 358 358 359 361 364 366 367 368 371 373 373 374 374 373 373 372 370 371 370 368 367 366 367 367 367 367 367 367 367 365 363 365 368 369 369 368 365 363 363 361 360 361 364 365 365 365 364 362 362 361 360 357 357 356 357 357 356 356 354 353 351 349 347 347 347 347 346
336 338 340 349 354 352 353 358 364 363 361 360 359 360 361 360 358 358 358 359 358 359 363 367 367 368 371 373 373 375 374 374 374 372 371 372 371 370 368 367 367 368 368 369 368 368 368 368 366 365 366 368 369 369 367 364 362 362 360 358 361 364 364 365 365 364 362 362 361 360 357 356 357 358 357 356 355 354 351 350 348 346 346 346 346
334 339 345 355 364 362 357 356 357 357 357 359 359 358 360 360 358 358 359 359 360 360 363 367 368 370 372 373 374 374 374 374 374 373 371 371 371 371 370 367 368 368 368 369 369 369 369 368 368 366 365 366 368 368 368 366 363 362 360 360 359 362 364 365 365 365 364 363 362 362 359 357 358 358 358 356 356 355 352 351 349 347 347 347 346
347 359 365 369 370 366 363 364 361 356 355 356 357 359 359 360 359 357 358 359 360 360 362 367 368 370 371 374 373 373 374 374 374 372 373 371 372 372 371 369 367 367 368 369 369 369 368 368 369 367 366 366 367 366 367 367 365 362 361 360 359 360 362 363 365 365 365 364 363 363 361 360 359 359 359 357 355 355 354 352 350 349 348 348 347
352 363 368 371 370 368 368 369 368 361 355 353 356 358 359 360 358 357 358 359 359 360 363 367 370 371 371 373 373 373 374 373 373 373 372 372 371 372 371 370 368 367 367 368 370 369 369 369 368 368 368 366 366 366 365 366 366 364 362 360 360 360 361 362 363 364 365 366 365 363 362 362 361 360 361 358 354 354 355 354 352 351 350 348 348
354 363 363 366 368 370 370 371 370 366 359 354 354 357 359 360 359 358 358 358 359 360 362 366 370 372 371 371 372 372 373 373 373 373 372 372 371 371 371 370 369 367 366 366 368 369 368 369 368 368 368 368 367 367 366 366 365 365 363 361 360 360 362 362 362 362 363 365 365 363 362 362 362 361 361 359 355 353 355 356 355 353 352 350 349
362 362 361 365 370 371 370 368 369 370 365 357 354 356 358 359 359 358 357 359 359 361 363 365 370 371 370 370 371 371 373 373 372 372 371 371 370 370 371 370 369 368 366 365 366 367 368 369 369 368 368 367 368 368 367 366 366 364 363 362 360 361 362 362 362 362 362 364 364 363 362 361 360 361 361 360 356 353 354 357 356 354 353 352 350
364 362 363 367 369 369 370 367 366 367 364 358 355 356 357 359 360 358 358 358 360 362 364 365 368 370 370 370 370 371 372 371 371 371 369 370 370 370 369 370 369 368 367 366 365 365 367 369 368 369 369 367 367 368 367 367 366 364 363 361 360 362 363 362 363 363 362 363 364 363 362 359 359 359 360 360 357 353 353 356 356 354 353 353 350
362 364 365 367 368 368 370 369 370 369 365 357 356 356 359 360 361 361 360 359 361 362 365 366 367 369 368 369 370 371 371 370 369 370 369 369 370 369 368 369 369 368 367 368 367 365 366 366 366 368 369 368 367 367 367 367 366 365 364 362 361 362 362 362 363 362 362 363 363 362 361 360 358 357 358 360 358 354 353 354 355 355 353 352 351
363 362 362 365 368 367 365 366 368 368 366 360 357 358 360 360 361 362 361 360 361 364 365 368 370 368 367 368 368 369 370 369 368 369 369 368 368 369 368 368 368 368 368 368 367 366 366 365 365 366 366 367 367 367 367 366 366 365 364 363 361 361 361 362 363 362 362 362 361 362 361 359 358 357 356 358 358 355 353 352 354 355 353 352 351
364 363 361 365 367 367 366 367 366 364 363 362 360 359 360 361 362 362 361 359 362 364 367 368 369 367 367 367 367 368 369 369 368 368 369 369 369 368 369 368 369 369 368 367 368 368 366 365 364 364 364 364 365 366 365 366 365 365 364 363 362 361 360 361 362 362 363 362 361 361 361 359 358 357 355 356 357 355 353 352 352 354 353 351 350
363 362 362 364 367 366 366 368 369 366 363 363 362 362 362 363 364 364 361 361 364 367 369 370 369 367 366 365 366 367 368 368 369 369 370 371 370 369 368 369 369 368 368 367 366 366 366 365 364 364 364 363 363 364 365 364 364 364 363 363 361 360 360 360 360 361 361 362 361 361 360 359 358 357 356 355 355 355 353 351 352 352 352 351 349
362 362 362 362 363 365 364 365 368 368 366 366 365 366 366 368 369 367 365 366 367 369 369 369 368 367 366 364 365 367 369 369 368 368 369 370 370 368 368 368 369 368 366 366 365 364 365 365 364 365 365 364 362 361 362 363 363 363 362 362 361 360 359 359 360 360 360 360 360 360 360 359 358 357 356 355 354 354 353 351 350 351 351 350 349
360 360 361 361 361 362 361 361 362 363 365 367 367 369 369 368 367 368 368 367 368 367 367 367 366 366 365 364 364 366 366 366 366 367 368 368 368 368 367 367 367 367 366 365 364 364 364 364 364 364 365 364 364 363 364 363 363 363 362 362 361 359 359 358 358 358 359 359 359 359 359 359 358 357 355 355 354 353 352 351 350 349 350 349 347
359 359 360 360 360 360 361 360 359 360 362 363 364 365 366 366 366 368 368 368 366 366 366 366 366 366 365 364 364 363 363 366 367 366 366 366 365 365 366 366 366 365 365 366 365 363 363 363 363 362 363 363 363 364 364 363 363 363 361 360 358 358 357 357 357 357 358 357 357 358 358 358 357 357 356 355 354 353 351 350 348 347 348 347 346
358 359 359 360 360 359 360 360 359 359 358 359 360 362 363 364 366 367 368 369 368 366 366 366 366 366 365 366 365 364 365 366 366 364 364 365 365 364 365 365 365 365 365 365 365 365 364 363 363 363 364 363 364 366 364 361 358 354 352 351 353 354 354 352 354 356 357 356 357 357 357 355 354 354 352 350 348 348 348 346 344 345 346 346 345
358 358 358 358 358 358 358 358 358 357 358 358 359 360 361 363 365 366 368 368 369 368 368 368 367 367 366 366 366 364 365 365 363 363 365 364 363 365 367 364 359 358 360 361 362 363 360 357 357 357 357 358 358 357 352 346 341 338 336 336 340 346 349 351 353 355 355 354 355 355 352 350 349 348 346 344 342 342 342 341 341 343 344 345 344
357 355 356 356 356 355 355 355 355 355 355 355 356 356 358 359 361 364 365 365 366 366 365 365 366 365 363 364 364 364 365 364 363 363 362 354 349 352 357 353 346 344 347 349 350 349 347 344 344 342 341 342 340 338 334 330 329 329 328 327 328 330 336 342 349 353 351 349 352 353 349 346 345 344 343 342 340 339 339 338 339 341 343 344 344
354 354 354 354 353 353 353 353 353 352 352 352 353 354 354 355 356 358 359 359 359 359 358 358 359 358 359 359 361 361 361 360 361 361 356 348 341 339 339 337 334 335 336 337 336 336 334 334 333 332 332 332 331 329 327 327 328 329 329 329 327 325 325 328 334 342 346 346 348 350 349 347 345 344 343 343 341 339 338 338 338 340 342 343 342
Wind_Speed
19 25 28 28 28 27 26 25 27 27 26 27 27 26 26 26 25 24 24 24 24 23 23 23 21 19 17 17 17 17 16 15 15 14 14 14 14 13 14 14 13 13 13 12 12 11 10 8 8 7 7 6 5 4 3 2 2 2 3 3 2 1 0 2 4 2 2 2 1 1 2 3 4 3 2 3 3 5 4 3 5 4 4 4 4
18 22 26 28 28 28 27 25 27 28 28 28 28 28 28 28 27 26 25 25 26 24 24 24 22 19 18 18 18 17 17 17 16 15 15 14 14 14 14 14 14 14 13 13 12 12 11 9 9 8 7 7 5 4 3 3 3 3 3 3 2 1 1 1 4 4 4 5 4 2 3 3 3 3 3 2 3 5 4 4 4 5 5 4 4
18 20 24 28 29 29 28 25 27 28 28 28 28 28 29 29 28 27 26 26 26 26 25 24 22 21 19 18 18 17 17 17 15 15 15 15 15 15 14 14 14 14 14 14 13 12 11 10 9 8 8 7 6 5 4 4 4 3 3 2 2 3 3 1 2 5 3 4 4 1 3 5 4 3 4 4 4 5 5 5 5 5 6 5 3
18 20 22 25 27 29 28 27 28 28 28 28 29 29 29 30 29 27 26 26 26 26 26 25 22 21 19 18 18 17 16 17 16 15 15 16 16 16 16 16 15 14 14 14 14 13 12 11 10 8 8 7 7 6 5 5 4 4 3 3 2 3 4 5 4 5 3 3 3 3 1 2 3 5 6 4 4 5 5 6 5 5 6 4 3
18 22 22 22 25 28 29 28 28 29 29 29 30 30 30 31 30 28 26 26 25 26 26 24 22 21 20 18 19 18 16 17 17 16 16 17 17 17 17 17 17 15 15 15 14 13 12 12 10 9 8 8 7 6 6 5 5 5 4 4 4 3 1 5 5 4 2 1 1 2 1 1 2 5 6 3 2 5 5 5 5 5 6 4 4
19 22 23 22 23 27 29 29 29 30 30 31 31 31 30 30 31 29 27 27 26 25 27 25 23 23 23 21 21 20 18 18 19 19 18 19 18 17 17 17 17 17 16 16 15 14 13 12 11 10 9 8 8 7 6 6 5 5 5 4 5 3 2 2 5 4 3 2 2 2 2 1 3 2 3 2 2 4 4 5 5 5 6 6 5
20 21 22 23 23 25 27 29 30 30 31 31 31 31 30 30 31 31 28 27 27 26 27 26 24 24 24 23 22 21 20 18 19 19 18 18 18 18 17 17 18 17 17 17 16 15 14 13 12 11 10 9 8 8 7 6 6 6 5 4 4 4 2 3 5 6 4 4 4 4 4 1 3 2 1 2 3 3 3 3 5 7 6 5 6
20 21 22 23 24 26 29 31 32 31 31 32 31 32 32 32 32 32 30 28 28 28 29 28 26 24 25 23 22 21 20 18 18 18 17 17 17 17 17 17 18 18 17 17 16 16 15 13 13 12 11 10 9 9 8 7 6 6 6 5 4 5 5 5 6 6 7 6 6 5 5 2 1 1 1 1 2 2 3 4 4 6 6 6 6
20 21 24 23 24 29 32 33 33 32 32 33 33 33 33 33 32 32 31 28 28 28 30 30 28 25 25 24 22 20 20 18 18 17 17 17 17 17 17 16 17 18 17 17 17 17 16 15 14 13 12 11 10 9 9 8 7 7 7 7 6 6 6 7 7 6 6 7 7 6 4 3 3 3 3 2 2 2 3 4 5 5 4 5 5
19 21 23 23 26 31 33 32 33 32 32 33 33 32 33 32 32 33 32 30 29 30 31 31 30 27 26 25 23 21 20 19 17 17 17 17 17 17 17 16 17 18 18 18 18 17 17 16 15 14 13 12 11 10 9 9 9 9 9 8 8 7 7 7 8 7 6 5 8 7 5 4 4 4 5 5 4 3 3 4 8 9 6 5 4
19 20 20 23 27 31 32 32 32 31 31 32 32 32 33 33 33 34 33 31 30 30 31 31 30 29 27 26 25 23 21 20 18 18 18 18 18 18 17 17 17 17 18 18 18 18 18 17 16 15 14 13 12 11 10 10 10 10 10 9 9 9 8 8 9 9 8 5 7 8 7 7 6 5 6 6 5 5 4 6 7 8 6 7 6
19 19 19 20 23 26 29 30 32 31 30 32 33 33 34 34 34 35 34 32 31 31 32 32 31 29 28 27 26 25 23 21 20 19 19 19 19 19 18 18 18 17 17 17 18 19 18 18 17 16 15 14 14 13 12 11 10 10 11 10 10 10 9 9 9 10 10 8 8 9 9 8 8 7 6 6 6 6 5 7 3 3 1 6 7
18 17 17 19 20 21 24 28 31 32 32 33 33 33 33 34 35 36 36 35 33 32 33 32 31 30 28 27 27 26 24 23 21 20 20 20 19 19 19 19 19 18 18 18 19 20 20 19 19 18 17 15 15 14 13 12 11 11 12 12 11 11 11 10 10 11 11 10 10 10 10 9 9 8 7 6 7 7 6 6 5 2 2 5 7
16 17 17 18 19 20 22 27 31 32 34 34 34 33 32 33 35 36 36 36 34 33 33 32 32 31 29 28 26 26 25 24 22 21 21 21 20 20 20 19 19 19 20 19 19 20 20 20 20 19 18 17 16 15 14 13 13 12 13 13 12 12 12 11 11 12 12 12 11 10 10 10 9 9 8 7 7 8 8 7 5 3 4 6 6
14 16 18 19 21 21 23 28 31 33 35 35 34 34 33 33 36 37 36 36 35 33 33 33 33 32 30 29 27 26 25 24 23 22 22 22 22 21 21 20 20 19 20 20 20 20 20 20 20 20 19 18 17 17 16 15 14 14 14 14 13 13 13 13 12 13 13 14 13 12 11 10 9 9 9 9 8 8 8 8 7 4 4 5 5
14 16 18 20 21 21 24 28 31 33 35 35 35 35 35 34 36 37 36 36 35 34 34 33 33 31 31 30 28 26 25 24 24 23 24 23 22 22 21 21 21 20 19 19 20 20 20 20 20 20 20 20 19 18 17 16 16 16 15 15 14 14 14 14 14 14 14 15 14 13 12 11 10 10 9 9 9 8 7 7 7 6 5 4 4
16 17 18 19 20 21 25 29 30 32 34 36 37 37 37 35 35 37 36 36 36 35 34 33 33 32 32 31 29 27 27 26 25 25 25 24 23 22 22 21 22 21 20 19 20 21 21 21 21 20 20 20 20 20 19 17 17 17 17 16 16 15 15 15 15 15 15 15 15 15 14 12 11 11 10 9 9 8 7 7 7 8 6 5 3
17 19 19 19 20 21 25 29 32 34 35 37 37 37 36 35 36 37 36 36 37 36 34 34 33 33 32 31 31 30 28 27 27 26 25 24 24 23 23 22 23 23 22 20 20 21 22 22 21 21 21 21 21 21 20 19 18 18 17 18 17 16 16 16 16 16 15 15 16 15 15 13 12 12 12 11 10 9 9 8 8 8 8 7 5
16 18 18 18 20 21 25 30 33 35 36 36 37 36 35 35 35 37 37 38 37 36 34 33 33 32 31 32 32 31 29 28 28 26 25 25 26 25 24 24 23 23 23 22 21 21 22 22 22 22 21 21 21 21 21 21 20 19 18 18 18 18 17 17 16 16 16 16 16 16 16 15 13 12 13 12 11 11 11 10 10 10 10 10 8
17 18 18 19 21 23 28 32 34 35 35 35 36 36 36 35 35 36 36 36 36 35 33 33 33 32 31 31 32 31 30 29 28 28 27 27 27 26 25 25 24 23 23 23 23 22 22 23 23 23 22 22 22 22 22 21 21 20 19 19 19 19 19 19 18 17 17 16 17 17 17 16 14 13 13 13 13 12 12 12 11 12 11 11 11
16 17 17 20 21 23 28 32 32 32 33 33 35 36 36 35 35 36 36 35 35 35 34 34 34 33 32 32 32 32 31 30 29 29 29 27 27 27 26 24 24 23 23 23 24 24 23 23 23 23 23 23 22 22 22 22 22 21 20 19 19 20 21 20 19 18 18 17 17 18 18 17 16 15 14 14 14 14 14 13 13 13 13 12 12
16 16 17 18 19 21 24 27 28 29 31 33 34 35 35 35 35 35 36 36 37 37 36 35 34 34 34 33 33 32 32 31 30 30 30 28 27 27 26 25 24 24 24 24 24 24 24 24 24 23 23 23 23 23 23 23 23 22 22 21 20 22 22 21 20 20 20 18 18 18 19 18 17 17 16 15 15 15 15 15 15 14 14 14 14
16 16 14 14 16 17 19 23 26 28 30 32 33 34 36 36 35 35 36 37 38 37 36 35 34 34 35 34 33 33 32 32 31 30 30 30 28 27 26 26 26 24 24 25 25 25 25 25 25 24 23 23 23 24 23 24 24 24 24 23 22 23 23 23 22 22 21 20 19 19 19 19 19 19 18 17 16 16 16 16 17 16 15 15 15
15 15 13 14 16 15 15 18 20 23 27 31 32 33 35 36 36 35 36 38 37 36 36 35 34 34 35 35 34 33 32 33 32 31 31 31 30 28 27 27 27 26 25 25 25 25 25 25 26 25 24 24 24 24 25 25 25 25 25 25 24 24 24 25 24 23 22 22 22 21 21 21 20 20 20 19 18 18 18 17 17 17 16 16 15
12 11 12 14 14 13 13 13 15 20 26 29 30 32 33 35 36 36 36 37 36 36 35 35 35 35 35 35 34 34 34 34 33 32 32 33 31 29 28 28 28 28 26 25 25 26 26 26 26 26 25 25 25 25 26 26 26 26 26 25 25 25 25 25 25 24 24 23 23 23 22 22 22 22 21 21 21 20 19 19 18 18 18 17 16
9 10 10 11 11 12 14 13 14 21 25 25 28 31 31 32 35 35 35 35 35 35 35 35 35 35 35 35 35 35 34 35 35 34 33 33 32 31 30 28 28 28 28 27 26 26 27 27 26 26 26 27 26 26 27 27 26 26 26 25 25 25 25 25 26 25 25 25 25 25 24 23 24 24 23 23 23 23 22 21 20 19 19 18 17
8 9 10 9 9 11 14 13 15 20 24 25 27 29 29 30 33 33 33 34 34 35 35 35 34 34 34 35 36 36 36 36 36 35 34 33 32 32 31 29 28 28 29 29 28 27 27 28 28 27 27 27 28 28 28 28 28 27 27 26 25 25 25 25 26 26 26 26 26 26 26 26 26 26 26 25 24 24 24 23 22 21 20 19 18
8 8 9 9 9 9 12 13 15 19 23 25 26 28 28 28 30 31 32 33 34 34 34 34 33 33 34 35 35 35 36 36 36 35 35 33 33 33 32 31 29 28 29 30 30 29 28 28 28 29 28 28 29 29 29 29 29 28 27 27 26 25 25 25 26 26 27 27 27 27 28 28 28 29 28 27 26 26 25 24 24 23 21 21 19
9 9 10 10 10 10 11 13 15 17 21 24 25 26 27 27 28 30 30 31 32 33 33 33 32 33 33 34 34 33 34 35 34 33 34 34 33 32 32 31 30 29 29 29 30 30 29 28 29 29 29 29 29 30 30 30 29 29 28 27 26 26 26 26 26 27 28 28 28 28 28 29 31 31 31 30 29 28 27 26 25 25 23 22 21
11 11 11 11 11 12 12 13 14 15 18 22 22 23 26 27 27 28 29 29 29 30 32 31 31 31 31 32 32 32 32 33 33 33 33 34 33 32 32 32 32 31 29 29 29 30 30 29 29 29 29 30 30 30 32 33 32 31 29 28 27 27 28 28 27 27 28 28 29 29 29 30 32 34 34 34 33 32 31 28 26 26 25 24 22
10 10 10 10 10 11 12 14 14 15 18 21 22 23 25 26 27 28 28 28 28 28 30 31 30 29 29 30 31 31 31 31 33 33 32 32 32 32 31 32 32 32 30 29 29 29 30 30 29 30 30 30 30 31 34 36 37 35 32 29 28 28 28 29 29 28 28 29 29 29 29 30 34 36 36 37 37 36 35 32 28 27 28 26 24
6 6 7 7 8 9 12 14 14 17 20 22 22 23 24 26 27 27 27 28 28 28 29 30 28 27 27 28 29 29 29 30 31 31 31 30 30 30 30 30 31 31 31 30 29 29 30 30 29 30 31 31 31 33 36 38 40 41 38 32 28 28 28 29 29 29 29 28 29 30 29 29 32 36 37 38 39 38 37 36 33 30 29 29 27
7 7 6 6 5 6 8 11 12 16 20 23 24 24 25 26 26 25 26 28 29 28 28 28 28 27 27 27 27 27 27 28 29 29 29 28 29 30 30 30 29 29 29 29 29 29 29 30 30 30 31 31 31 33 37 40 41 43 43 39 32 28 28 29 29 30 30 29 29 29 30 29 29 33 36 37 38 41 39 37 36 34 31 31 31
8 8 6 4 2 2 3 6 10 14 17 21 24 24 24 25 26 26 27 28 28 27 27 28 29 28 27 27 27 27 27 26 26 27 27 27 28 29 30 29 28 29 29 29 29 29 29 30 30 30 30 30 30 31 35 40 42 42 44 44 38 31 28 29 29 30 30 30 30 30 30 30 29 30 35 34 33 38 40 39 38 38 34 32 32
9 7 4 1 2 1 2 4 7 10 13 17 20 22 22 24 26 27 27 27 27 27 26 27 29 29 28 28 28 27 27 26 25 26 27 28 28 28 29 29 27 28 28 28 28 29 29 29 29 30 30 30 30 31 34 37 41 42 43 45 43 35 30 30 30 30 31 31 32 32 31 31 29 30 33 34 31 32 37 40 40 39 35 32 32
3 1 2 2 1 1 2 2 4 7 10 13 17 20 22 24 26 27 27 27 27 26 26 27 28 29 29 28 28 27 26 26 26 27 28 28 28 28 28 28 27 26 26 27 27 28 28 28 28 29 30 30 30 32 34 36 39 41 42 45 46 40 33 31 30 30 31 32 32 33 31 31 31 29 31 36 35 31 31 35 37 35 33 30 30
0 4 3 1 1 2 3 4 5 7 9 12 14 19 22 23 24 26 26 27 27 27 27 27 27 29 29 28 27 27 26 27 27 28 29 29 28 27 26 26 26 26 25 25 25 26 26 27 29 29 30 31 31 32 35 37 39 41 42 45 48 43 35 33 32 30 31 32 33 34 32 30 30 30 32 37 40 37 32 31 32 31 30 30 28
1 2 1 1 1 2 3 4 6 7 10 11 13 17 21 21 23 25 26 27 27 28 28 27 26 26 27 26 27 27 27 28 28 28 28 27 26 25 25 25 26 26 26 25 24 24 25 27 28 30 31 31 31 33 37 38 40 42 43 46 48 42 36 34 34 32 32 32 33 35 35 33 30 31 35 39 43 42 36 31 30 29 28 29 28
3 1 1 0 1 2 4 6 8 9 10 12 13 17 19 20 22 24 25 26 26 27 27 26 25 24 25 25 26 27 27 27 28 27 26 25 25 24 24 25 25 25 26 26 25 25 25 26 27 29 31 32 31 32 36 39 41 42 43 47 46 39 34 34 34 33 33 32 32 34 37 39 36 34 36 40 44 46 40 33 31 30 28 29 29
2 1 2 1 1 2 4 6 7 8 10 12 14 16 17 19 20 22 23 24 24 24 24 24 23 22 23 24 24 25 26 25 25 25 24 24 24 24 24 24 25 25 24 25 25 25 25 25 25 26 28 31 32 33 35 37 40 42 45 48 45 37 33 34 33 32 31 30 32 34 37 42 44 41 39 40 44 48 43 35 32 32 31 30 28
3 4 4 2 1 1 3 3 2 4 8 11 14 15 15 17 18 19 20 21 21 21 22 22 22 22 22 23 23 24 24 23 23 23 23 23 23 23 23 24 23 22 22 23 23 24 24 24 25 25 26 28 30 32 34 36 39 42 45 48 48 41 36 32 29 29 30 30 32 35 37 41 46 47 45 42 44 47 45 37 34 33 33 31 29
3 3 2 3 1 1 2 2 1 4 7 9 13 14 13 15 16 17 17 18 19 20 20 21 22 21 22 22 22 21 22 22 21 21 22 22 21 21 21 21 21 20 21 21 21 21 21 22 23 24 25 27 28 29 32 34 37 40 43 47 50 45 37 30 27 29 31 31 33 35 36 40 45 49 50 47 44 46 47 41 36 34 32 33 31
2 1 1 1 0 1 0 1 1 5 7 9 11 13 12 13 14 15 16 15 16 18 18 18 19 20 20 20 20 20 20 19 19 20 20 19 19 19 18 19 19 18 19 20 21 20 20 21 22 23 25 27 28 28 30 33 34 36 39 44 49 48 41 35 32 33 32 31 32 32 33 36 41 46 51 50 46 46 49 45 38 34 33 36 35
3 3 3 2 1 2 3 3 1 3 6 8 10 12 12 12 11 12 14 14 14 15 16 16 17 18 18 18 18 18 18 17 17 18 18 17 17 18 17 17 17 18 18 19 20 20 19 20 21 22 23 25 26 27 29 32 35 37 39 42 46 48 46 42 39 37 35 31 31 31 31 33 36 40 47 52 49 47 49 47 41 36 36 37 36
4 5 3 3 3 4 4 4 4 3 4 6 9 11 12 12 10 9 11 13 13 14 15 15 15 16 16 16 16 16 16 15 16 16 17 16 16 16 16 16 17 18 19 18 19 19 19 19 20 21 22 23 24 25 26 28 30 34 37 40 42 46 48 48 46 45 42 37 34 32 31 31 33 36 43 50 52 49 48 48 44 40 38 39 37
4 4 4 3 4 5 5 5 5 5 5 6 8 10 12 12 10 9 9 11 12 12 13 13 13 14 14 15 15 15 15 15 14 14 14 14 15 16 16 16 16 17 17 16 17 17 17 18 19 19 20 21 21 21 22 24 25 27 32 37 40 43 47 49 51 53 50 46 41 37 33 32 32 34 41 48 52 50 48 47 46 43 41 40 38
4 4 3 4 5 5 6 6 6 6 7 7 8 10 10 11 10 9 9 9 10 11 11 11 12 12 13 14 14 14 14 14 14 13 13 13 14 14 14 14 15 15 15 15 16 16 16 17 17 18 19 19 19 19 20 20 17 16 20 28 35 42 47 49 54 56 55 52 47 42 40 37 33 33 40 47 51 51 50 49 49 47 43 40 39
5 3 3 5 7 6 6 7 7 7 7 8 9 9 9 9 9 9 10 10 10 10 11 11 11 11 11 12 12 12 13 13 13 13 11 11 12 12 13 13 11 10 11 12 13 14 14 14 13 13 14 14 15 16 16 15 15 14 15 18 24 34 42 49 54 57 59 57 50 43 40 36 32 34 40 44 46 47 49 49 50 48 43 39 39
5 5 5 6 7 8 8 8 8 7 8 9 9 10 9 9 9 9 11 12 11 11 12 12 11 11 11 11 10 11 11 12 13 12 8 5 3 4 5 4 4 3 1 3 4 5 6 8 8 8 9 10 12 14 17 20 23 23 22 21 19 24 33 41 47 53 56 54 45 37 34 32 34 39 42 41 41 44 46 47 47 45 41 39 40
6 7 7 8 8 9 10 9 9 8 8 9 9 10 10 10 10 10 11 12 12 12 13 12 11 11 10 10 11 10 9 9 10 10 10 11 10 7 6 7 9 7 4 2 2 3 6 8 8 8 8 8 10 14 19 22 23 24 26 26 25 24 26 33 41 46 48 45 38 35 35 37 40 42 41 40 40 42 44 45 44 43 40 37 39
7 8 9 9 10 11 11 11 10 10 9 10 10 10 10 10 11 11 12 13 12 12 11 11 10 9 9 9 9 8 7 7 7 8 9 10 12 12 11 11 11 10 9 8 6 5 5 6 7 8 9 10 12 16 19 21 23 25 27 29 31 31 30 31 35 39 41 40 37 36 37 38 40 41 40 41 41 42 43 44 43 42 41 38 38
Wind_Direction
188 182 182 181 182 181 182 182 184 188 189 190 191 190 192 191 188 190 192 191 187 187 191 194 194 194 195 195 198 201 203 206 209 210 210 207 205 200 195 195 195 196 200 205 211 218 222 227 226 225 232 232 232 234 227 216 180 140 127 139 132 80 89 138 135 135 166 169 180 154 139 149 160 168 208 234 188 136 141 156 138 129 129 135 137
192 181 182 182 182 181 181 181 183 186 188 190 192 191 193 194 192 191 192 193 190 189 191 194 195 194 194 196 198 199 201 205 206 207 209 207 204 201 198 196 196 196 199 204 209 214 217 220 223 222 227 230 228 230 221 201 188 163 153 152 134 146 286 90 123 164 192 164 155 175 173 156 149 162 170 181 154 124 131 145 134 131 133 125 122
195 183 182 182 182 180 180 181 183 185 187 188 189 190 192 194 194 191 192 195 194 191 191 194 195 195 196 196 198 199 201 204 207 207 207 207 203 202 202 198 197 197 198 203 208 210 213 215 218 218 221 224 223 226 215 204 200 181 170 158 158 175 171 119 172 222 239 101 109 201 185 153 146 155 155 158 147 132 139 142 133 129 122 118 127
197 188 184 180 181 181 180 181 182 183 184 186 188 189 191 193 192 190 192 195 195 192 192 194 196 196 197 197 199 201 201 202 206 208 206 208 206 202 204 201 198 200 200 202 206 208 210 212 214 214 215 217 219 221 212 206 197 185 172 148 201 210 159 148 186 233 285 59 136 216 225 149 151 156 153 153 146 142 147 139 132 125 119 123 125
201 192 183 180 181 182 181 180 181 182 183 186 187 188 190 192 191 189 192 195 195 193 190 192 194 194 196 197 200 203 203 201 203 207 204 206 208 203 203 203 200 202 203 203 206 207 207 209 211 211 210 210 213 217 214 209 190 179 172 152 196 249 162 141 165 217 263 21 230 253 261 109 120 143 143 137 141 143 138 129 133 134 124 120 108
205 194 182 180 181 180 180 181 182 183 183 185 187 188 188 189 191 190 191 193 195 193 189 190 192 193 195 196 197 200 202 201 203 204 201 202 207 205 203 203 202 203 205 204 205 206 206 207 208 209 208 206 211 215 212 208 192 181 178 170 186 234 291 148 165 198 204 203 263 288 270 350 40 100 133 126 153 148 144 146 154 148 129 128 139
200 198 186 180 179 179 181 183 185 184 183 184 185 187 187 187 189 190 191 192 194 193 190 190 193 193 196 197 197 199 200 201 202 204 202 202 206 206 202 201 202 203 204 205 205 206 206 206 207 208 207 205 208 213 213 207 195 184 180 177 176 183 212 207 185 183 187 210 223 225 238 294 29 21 120 135 160 158 170 191 167 147 135 142 166
194 195 188 183 180 181 182 184 186 185 181 181 183 185 186 186 188 190 192 193 193 193 191 192 194 194 196 198 200 200 202 202 201 202 204 205 207 208 204 200 200 203 204 204 205 205 204 204 206 206 207 206 206 211 215 207 194 185 176 174 180 181 185 211 212 182 177 199 207 214 229 236 73 305 311 149 184 170 177 218 189 159 165 169 172
196 194 187 184 183 183 184 183 185 185 181 181 183 183 184 185 186 188 191 193 193 193 193 194 195 195 195 199 200 202 203 203 200 200 203 206 207 207 205 201 198 201 203 204 204 204 205 204 204 206 206 204 205 211 212 206 196 186 178 175 186 198 187 201 218 201 192 187 181 203 223 213 206 211 230 223 224 219 180 189 184 181 203 187 176
199 200 188 183 186 185 184 183 184 185 183 182 182 181 182 184 185 188 191 192 193 193 194 195 197 197 198 199 201 201 202 203 201 199 201 204 206 205 205 202 198 199 202 203 203 204 205 205 205 207 207 204 204 210 209 204 199 189 186 182 187 203 198 198 209 210 219 190 164 186 204 204 209 205 213 210 205 218 230 210 179 180 204 188 197
196 200 192 185 186 185 183 183 184 186 184 181 181 181 181 183 185 187 190 191 192 193 194 196 197 199 200 199 201 201 200 201 201 200 199 200 203 202 203 202 200 201 202 203 203 203 204 205 206 208 207 205 203 208 209 203 201 195 191 187 189 203 205 202 207 209 219 208 175 184 195 199 200 202 210 210 209 195 215 246 191 167 194 179 185
195 193 191 186 185 185 184 183 184 186 184 182 183 182 181 183 184 186 188 190 191 192 194 196 198 200 201 201 201 201 201 200 200 200 198 198 201 201 201 203 203 205 204 204 205 205 204 204 207 208 208 207 205 205 207 204 203 198 192 191 192 203 210 207 208 209 211 210 200 194 197 202 200 206 212 205 217 211 212 252 238 115 160 167 167
195 189 187 187 185 186 186 183 183 185 185 185 185 184 182 182 183 184 187 189 189 191 193 195 197 200 201 202 202 202 202 202 200 201 200 200 202 200 200 202 204 206 205 205 206 205 204 203 204 206 206 206 205 204 204 202 201 196 191 194 196 202 210 210 211 213 211 211 212 205 202 207 202 206 221 207 204 212 219 249 255 180 198 186 173
193 188 186 188 186 187 187 184 184 185 186 186 185 185 183 182 183 185 187 188 189 190 191 194 197 199 201 202 202 201 202 202 201 203 203 203 205 204 203 203 205 207 206 207 208 205 204 203 202 203 203 203 202 202 202 199 197 197 194 195 197 201 208 213 215 215 215 214 217 216 211 212 208 200 209 214 204 202 208 225 242 231 220 212 180
194 193 189 189 187 187 188 185 185 186 186 186 186 185 184 183 184 185 186 187 188 190 190 192 196 198 200 201 201 201 202 202 203 205 206 206 208 208 207 207 209 210 209 209 209 207 206 204 202 201 200 199 199 199 199 197 195 197 199 198 199 202 207 214 217 216 218 217 216 221 220 215 215 208 201 207 212 207 205 211 221 228 228 223 193
191 201 195 190 187 186 189 188 186 186 186 187 187 186 186 185 183 184 184 185 187 189 190 192 194 196 199 201 200 200 201 202 203 206 207 208 209 210 210 211 213 213 212 210 209 207 207 205 203 202 200 198 198 198 197 198 196 197 201 201 202 205 206 211 217 217 218 219 216 218 223 220 216 217 212 206 210 214 212 212 214 218 224 226 213
186 201 197 188 187 187 190 190 188 187 188 188 188 187 186 185 183 184 183 184 187 188 190 191 191 194 197 199 199 200 201 203 205 206 208 209 210 212 213 213 214 215 214 212 209 207 206 205 204 204 203 201 199 199 199 198 197 199 202 202 203 206 207 208 215 219 218 219 219 216 219 224 218 215 219 213 208 211 213 213 213 216 222 227 228
191 199 194 186 188 188 190 192 190 190 190 189 189 188 187 185 184 183 183 184 186 188 189 189 190 193 196 197 199 201 202 204 207 208 208 209 210 212 214 214 215 215 215 214 211 208 206 205 204 204 204 203 202 203 202 200 199 201 203 204 205 206 206 207 212 218 219 217 219 218 215 221 221 214 216 216 210 208 210 212 211 213 215 226 244
195 196 191 186 188 189 191 193 193 192 191 190 188 187 188 187 185 185 186 186 187 187 188 188 189 192 195 197 199 200 202 204 207 208 207 209 211 212 213 215 215 214 214 213 211 209 207 205 204 204 205 205 204 204 203 200 200 203 205 207 207 205 205 208 209 214 219 217 217 219 215 216 219 215 214 214 211 206 207 210 209 211 212 215 231
195 193 189 187 190 191 192 194 194 192 191 189 188 188 189 189 187 188 188 188 187 187 187 188 190 193 194 196 197 199 201 203 204 206 207 209 212 212 214 215 215 214 213 212 211 210 209 208 208 207 207 207 206 205 204 202 201 202 205 208 208 205 205 209 209 211 215 216 215 216 216 214 215 216 215 213 212 208 207 210 208 208 213 212 216
194 190 190 190 191 192 193 194 194 192 190 190 189 189 190 190 189 190 189 188 189 188 188 189 191 193 193 194 196 198 200 202 203 204 207 210 211 212 213 214 214 214 213 211 210 210 210 210 211 210 209 208 206 205 205 202 202 202 203 208 208 204 205 208 210 211 212 214 214 214 215 214 213 214 215 213 212 209 206 209 210 207 210 212 209
196 193 194 194 194 193 192 191 192 192 191 192 191 190 190 192 192 191 190 189 190 190 190 190 190 192 193 194 195 197 198 200 202 203 206 208 210 211 211 212 213 213 212 211 210 210 210 209 212 212 210 209 206 205 205 203 203 202 201 206 208 204 205 206 208 211 212 212 213 213 214 213 212 213 215 214 213 211 208 209 210 209 210 210 208
199 197 192 197 199 194 189 187 191 193 192 192 193 191 191 192 192 192 192 192 192 192 191 189 189 191 193 194 195 196 197 198 200 202 205 208 210 210 209 209 212 212 211 211 210 210 210 208 210 210 209 208 206 205 206 206 205 204 202 204 206 206 205 205 206 210 212 212 212 213 213 212 210 212 213 214 215 213 212 211 210 211 212 210 208
198 197 190 197 197 188 185 185 189 194 193 193 196 195 193 192 192 193 194 194 193 191 190 189 189 191 192 193 194 195 197 198 200 203 206 209 210 210 209 208 210 212 211 210 210 210 210 207 208 208 206 207 207 205 207 209 208 207 205 205 206 206 206 206 207 209 211 211 211 211 213 211 209 210 211 211 214 214 213 213 213 212 212 213 210
185 192 189 192 185 176 183 185 186 194 195 194 196 197 196 194 192 193 195 194 193 192 191 190 190 192 193 193 194 196 198 200 203 205 208 210 211 211 211 209 209 212 213 210 209 209 209 207 206 207 205 205 206 206 206 209 211 211 209 208 207 206 207 208 209 210 211 211 211 210 211 211 209 209 209 210 211 212 212 212 213 212 211 212 212
171 182 185 188 178 172 181 185 186 193 196 196 197 199 200 197 195 194 193 193 193 192 191 190 191 192 192 193 194 196 199 202 204 207 209 210 212 212 212 210 209 211 212 211 209 208 207 207 206 206 205 205 206 206 207 208 211 212 212 212 210 208 208 209 210 212 212 211 211 211 210 211 211 210 209 209 210 210 211 212 212 212 210 209 211
177 185 186 188 184 177 179 185 190 194 197 199 199 201 202 200 200 198 194 192 192 192 191 190 191 192 192 193 194 195 198 202 204 207 208 210 211 212 212 212 210 210 212 212 212 209 207 206 205 205 205 205 205 207 208 208 209 211 212 212 213 212 210 210 211 212 214 214 213 212 211 211 212 212 210 208 208 208 210 211 211 210 210 208 210
172 177 180 181 184 182 182 187 193 196 198 200 201 202 202 202 202 201 198 194 192 191 191 190 190 191 192 193 194 195 198 202 204 205 207 209 210 211 212 211 210 210 211 212 213 211 208 206 205 205 205 205 206 207 208 207 208 210 211 212 213 213 213 213 213 213 215 217 216 215 215 213 212 212 211 208 207 206 207 210 210 209 209 209 209
159 163 170 174 180 186 188 191 195 199 199 200 203 202 202 203 202 202 202 199 193 191 191 190 190 192 192 191 192 194 197 201 202 202 204 206 208 210 210 211 211 211 212 213 214 213 210 207 206 206 206 206 207 208 209 208 207 207 209 211 213 214 215 215 214 215 216 218 219 219 218 216 214 213 212 210 208 206 205 206 207 206 207 208 209
154 161 170 174 178 185 189 192 195 199 200 200 202 202 202 203 202 202 204 202 195 191 191 192 192 193 192 189 189 192 194 197 199 200 201 203 206 207 208 210 211 212 212 212 213 214 213 210 207 205 206 208 209 210 212 212 211 208 207 209 212 213 216 217 216 216 217 219 221 222 221 219 217 216 216 214 211 209 208 207 206 206 205 205 207
156 160 165 170 178 183 187 192 195 197 199 200 201 201 202 203 202 201 202 202 198 193 192 194 195 192 190 189 189 191 192 193 197 198 199 200 202 205 207 209 211 212 213 213 213 214 215 214 210 207 208 209 210 213 215 215 215 213 210 209 211 212 214 217 218 218 218 219 220 222 224 222 219 217 218 217 215 212 211 211 210 208 207 205 205
177 166 164 173 184 186 187 194 197 196 198 200 199 199 200 203 203 200 199 201 200 196 194 195 196 192 189 190 190 191 191 192 195 196 197 197 199 203 205 207 209 210 211 213 213 213 214 215 214 211 211 212 213 216 217 217 217 217 215 212 212 214 215 216 219 220 220 220 220 221 223 223 220 217 217 218 217 215 214 214 214 213 211 211 209
203 189 190 200 209 200 193 197 198 197 199 200 199 198 199 201 201 198 198 200 201 199 194 194 195 193 191 190 190 191 192 193 194 194 195 196 197 201 203 205 207 208 209 211 212 212 213 214 215 215 214 215 216 217 218 218 218 219 218 216 213 215 217 217 218 220 221 221 220 220 221 222 221 217 214 215 216 216 215 216 217 217 215 214 215
231 224 220 211 198 184 188 199 203 202 201 200 200 201 200 198 198 197 197 199 200 199 193 191 193 194 191 190 190 192 193 194 193 192 194 196 198 201 203 204 206 207 208 209 211 213 213 214 216 218 218 219 220 219 219 220 220 220 220 218 216 216 219 220 219 219 220 221 220 218 219 221 221 219 213 209 210 213 214 216 218 218 217 217 218
257 262 261 174 123 160 197 208 212 210 204 200 200 200 198 197 198 198 197 196 198 198 194 190 192 193 191 190 190 192 193 192 191 192 194 198 201 202 203 204 206 207 209 209 211 214 215 215 217 219 222 223 223 222 221 221 222 222 221 220 218 218 221 223 222 220 220 221 220 219 219 218 218 217 211 205 202 204 209 213 215 217 217 217 218
262 19 71 88 83 274 257 232 219 217 213 207 201 198 197 198 198 198 197 195 195 197 195 192 192 193 192 191 191 191 191 191 191 193 196 200 203 203 202 204 207 210 211 211 213 216 217 218 219 220 223 225 225 225 224 222 222 222 221 220 219 219 222 224 224 222 221 221 220 219 218 218 216 215 211 207 204 201 201 206 211 212 213 215 217
45 78 96 114 254 260 251 237 226 224 226 220 207 198 196 197 197 198 197 195 195 197 197 194 193 194 193 193 192 191 191 192 192 195 199 201 203 203 203 204 208 211 214 214 216 218 219 220 221 221 223 226 227 227 226 224 223 221 219 218 218 218 221 225 226 225 223 222 221 219 217 216 214 214 212 208 205 202 197 199 204 205 207 212 216
105 99 160 183 217 246 251 245 238 232 230 228 215 200 195 195 197 197 196 195 196 198 197 195 194 195 195 194 194 193 193 194 195 197 200 202 202 204 204 204 207 212 216 217 217 219 221 221 223 223 223 225 228 229 227 226 224 221 218 218 217 216 219 223 226 227 226 225 224 220 217 215 214 216 216 209 205 203 198 195 200 201 202 207 210
72 53 287 345 351 306 281 256 244 236 226 224 218 204 196 195 197 197 197 197 198 197 195 196 196 195 196 196 196 196 195 196 198 199 201 201 201 203 203 204 208 212 216 218 219 221 222 223 224 225 226 227 228 231 230 228 225 222 219 217 216 214 218 222 224 226 227 227 227 224 220 217 215 216 218 213 207 204 200 195 198 202 204 206 206
55 30 24 0 304 284 272 256 241 229 219 216 212 205 198 194 195 198 199 198 198 194 192 195 196 195 196 196 196 197 197 198 199 199 201 201 201 202 203 204 207 212 215 217 219 222 224 226 227 228 228 229 230 232 233 231 227 224 221 218 214 212 216 220 222 225 227 227 228 228 226 222 218 216 219 217 210 206 204 198 197 203 208 208 204
33 34 19 317 280 251 265 274 248 216 212 208 205 202 197 191 192 199 201 197 194 191 189 192 194 195 195 195 195 196 197 199 200 199 201 202 202 203 205 205 208 211 214 216 219 223 227 229 231 231 231 232 232 232 234 234 230 226 223 219 215 214 217 219 221 225 227 228 229 228 226 225 221 217 219 219 212 209 207 203 202 205 206 205 201
50 33 327 285 290 206 242 255 221 215 216 208 201 198 193 189 192 199 200 193 188 187 188 189 191 193 194 195 196 196 195 198 201 200 200 202 203 204 206 207 209 212 214 217 219 221 228 234 237 238 239 240 240 238 237 238 235 231 227 223 220 220 221 222 225 230 230 228 228 226 225 227 224 218 217 218 215 210 207 206 207 208 204 202 200
90 102 165 236 323 74 63 338 238 211 211 204 195 187 183 185 190 195 195 188 182 182 183 184 186 190 193 195 195 194 193 196 198 197 197 199 200 203 205 206 209 213 217 221 222 224 229 238 243 244 245 246 247 245 244 243 239 235 232 228 226 226 224 222 227 234 235 232 232 232 230 229 226 220 216 217 215 210 208 207 207 205 203 201 199
78 75 87 96 82 82 71 30 26 183 194 193 185 177 174 175 179 186 187 179 172 172 174 176 181 186 190 193 194 193 192 193 193 193 195 197 198 201 204 205 209 216 221 225 228 229 232 238 243 246 249 250 249 249 248 246 243 239 237 234 232 230 227 224 227 234 239 240 241 242 240 234 229 224 219 218 217 211 208 206 204 203 202 199 197
78 67 64 77 87 93 94 77 67 97 153 169 167 162 160 159 157 161 164 160 157 162 167 171 176 181 186 189 189 189 189 189 190 191 194 197 199 202 206 208 212 220 225 229 233 233 233 238 243 245 249 251 253 254 255 253 250 246 242 240 237 234 230 227 228 234 241 244 244 246 246 242 237 229 220 217 216 213 209 205 202 201 200 196 195
100 86 72 82 95 99 107 104 93 95 115 133 142 143 147 154 156 156 153 150 152 158 164 169 172 174 181 185 185 187 187 187 189 190 191 194 200 206 209 211 214 219 224 229 234 236 237 241 246 248 250 253 257 263 265 265 263 257 249 245 242 239 235 232 231 235 240 242 242 242 244 247 243 231 219 214 214 213 210 206 202 200 198 195 193
98 92 88 100 102 100 110 114 112 108 108 118 129 133 141 149 152 152 149 146 151 156 158 163 166 167 175 181 183 185 183 180 183 185 186 192 199 206 211 213 216 222 225 227 231 234 238 243 248 253 256 258 260 262 262 266 273 272 260 251 244 239 236 232 231 234 237 239 239 239 241 246 245 232 220 216 214 211 207 204 202 200 197 193 192
107 116 122 116 106 99 101 104 106 109 111 117 119 117 123 129 131 137 142 141 146 149 148 153 157 156 162 169 172 173 171 171 178 183 183 189 197 203 208 211 216 224 228 231 235 237 241 247 254 263 273 279 280 277 278 293 316 322 305 283 261 248 241 234 231 232 233 235 237 237 237 238 232 219 211 208 207 205 203 202 202 200 197 193 190
141 129 113 108 106 105 102 95 90 92 100 110 107 101 105 109 105 113 125 127 131 136 135 136 137 138 145 152 156 163 165 167 175 172 145 108 118 168 176 154 115 105 180 239 258 267 281 292 303 314 317 313 308 305 308 315 319 317 311 305 290 269 256 248 244 240 236 233 233 231 226 219 210 204 200 198 197 197 197 200 201 199 196 192 188
141 124 116 114 110 105 101 95 89 85 86 95 99 99 105 106 98 97 105 108 113 119 120 121 124 128 136 141 143 152 157 155 156 144 110 83 74 76 84 79 68 57 41 19 355 330 323 323 328 334 332 329 328 326 326 325 321 315 311 307 300 288 271 259 256 251 242 235 230 224 218 211 204 200 198 197 195 192 192 194 196 197 196 191 186
135 129 124 117 109 106 103 97 94 91 87 88 91 93 98 102 103 102 103 107 112 112 111 115 115 102 96 107 116 118 116 111 106 101 99 97 90 80 73 70 71 69 64 60 56 42 23 12 5 356 345 342 340 333 329 327 323 318 315 309 305 302 291 275 263 255 245 236 229 225 221 215 208 203 202 200 197 192 191 190 190 192 194 191 184